Location: Chippewa Lake
(41.0698°N, 81.9010°W)
Time: 02:03:15
(UTC+00:00)

Cosmos 1782 - Pass Details

Date: 09 May 2021
Orbit: 537 x 550 km, 82.5° (Epoch: 24 June)

Event Time Altitude Azimuth Distance (km) Brightness Sun altitude
Exits shadow 03:06:25 22° 236° (SW) 1,233 4.6 -23.4°
Maximum altitude 03:08:16 33° 283° (WNW) 937 4.3 -23.6°
Drops below altitude 10° 03:11:56 10° 348° (NNW) 1,825 6.4 -24.0°
Sets 03:14:16 0° 359° (N) 2,720 7.3 -24.2°
